Location: Brede
(50.9167°N, 0.6000°E)
Time: 02:19:16
(UTC+00:00)

Cosmos 1602 Rocket - Pass Details

Date: 08 August 2020
Orbit: 603 x 634 km, 82.5° (Epoch: 19 September)

Event Time Altitude Azimuth Distance (km) Brightness Sun altitude
Rises 02:50:54 0° 351° (N) 2,904 7.6 -13.7°
Reaches altitude 10° 02:53:10 10° 355° (N) 1,988 6.8 -13.5°
Maximum altitude 02:57:32 66° 77° (ENE) 672 3.9 -13.0°
Drops below altitude 10° 03:01:50 10° 161° (SSE) 1,955 5.9 -12.5°
Sets 03:04:03 0° 164° (SSE) 2,851 6.7 -12.3°
